Lewisburg, WV

1:40 PM EST on November 21, 2017 (GMT -0500)
Greenbrier Valley

Weather History for KLWB - April, 2014

Change the Weather History Date:

Thursday, April 17, 2014

  Actual Average Record
Temperature  
Mean Temperature 42 °F 50 °F  
Max Temperature 57 °F 64 °F 86 °F (1976)
Min Temperature 26 °F 37 °F 25 °F (2001)
Degree Days  
Heating Degree Days 23    
Month to date heating degree days 246  
Since 1 July heating degree days 4400  
Cooling Degree Days 0    
Month to date cooling degree days 0  
Year to date cooling degree days 0  
Moisture  
Dew Point 18 °F    
Average Humidity 46    
Maximum Humidity 66    
Minimum Humidity 25    
Precipitation  
Precipitation 0.00 in - 0.13 in (2017)
Month to date precipitation 1.40  
Year to date precipitation 6.08  
Snow  
Snow 0.00 in - - ()
Month to date snowfall T  
Since 1 July snowfall 40.4  
Snow Depth 0.00 in    
Sea Level Pressure  
Sea Level Pressure 30.45 in    
Wind  
Wind Speed 4 mph (ESE)    
Max Wind Speed 9 mph    
Max Gust Speed -    
Visibility 10 miles    
Events      
T = Trace of Precipitation, MM = Missing Value Source: NWS Daily Summary

Daily Weather History Graph

Daily Weather History Graph

Search for Another Location

Airport or City:

Trip Planner

Search our weather history database for the weather conditions in past years. The results will help you decide how hot, cold, wet, or windy it might be!

Date:

Astronomy

Apr. 17, 2014 Rise Set
Actual Time 6:43 AM EDT 7:59 PM EDT
Civil Twilight 6:16 AM EDT 8:26 PM EDT
Nautical Twilight 5:43 AM EDT 8:59 PM EDT
Astronomical Twilight 5:09 AM EDT 9:33 PM EDT
Moon 10:41 PM EDT (4/17) 8:15 AM EDT (4/17)
Length of Visible Light 14h 10m
Length of Day
13h 15m
Waning Gibbous, 94% of the Moon is Illuminated
Apr 17
Waning Gibbous
Apr 22
Last Quarter
Apr 29
New
May 6
First Quarter
May 14
Full

Hourly Weather History & Observations

Time (EDT) Temp. Windchill Dew Point Humidity Pressure Visibility Wind Dir Wind Speed Gust Speed Precip Events Conditions
12:15 AM 38.8 °F 34.6 °F 16.0 °F 40% 30.38 in 10.0 mi SE 5.8 mph - N/A   Clear
12:35 AM 38.1 °F 35.7 °F 15.3 °F 39% 30.40 in 10.0 mi SSE 3.5 mph - N/A   Clear
12:55 AM 37.6 °F 34.0 °F 14.4 °F 39% 30.40 in 10.0 mi SE 4.6 mph - N/A   Clear
1:15 AM 36.9 °F 34.3 °F 13.8 °F 39% 30.41 in 10.0 mi SE 3.5 mph - N/A   Clear
1:35 AM 36.5 °F 33.9 °F 13.3 °F 39% 30.41 in 10.0 mi SE 3.5 mph - N/A   Clear
1:55 AM 36.1 °F 32.3 °F 13.5 °F 39% 30.41 in 10.0 mi ESE 4.6 mph - N/A   Clear
2:15 AM 36.1 °F 31.4 °F 12.9 °F 39% 30.41 in 10.0 mi East 5.8 mph - N/A   Clear
2:35 AM 35.1 °F - 13.1 °F 40% 30.42 in 10.0 mi Calm Calm - N/A   Clear
2:55 AM 34.2 °F 31.2 °F 13.6 °F 43% 30.42 in 10.0 mi East 3.5 mph - N/A   Clear
3:15 AM 34.0 °F - 13.3 °F 43% 30.43 in 10.0 mi Calm Calm - N/A   Clear
3:35 AM 32.7 °F - 14.0 °F 46% 30.43 in 10.0 mi Calm Calm - N/A   Clear
3:55 AM 32.0 °F - 13.8 °F 47% 30.43 in 10.0 mi Calm Calm - N/A   Clear
4:15 AM 29.8 °F - 15.8 °F 56% 30.44 in 10.0 mi Calm Calm - N/A   Clear
4:35 AM 29.3 °F - 15.6 °F 57% 30.44 in 10.0 mi Calm Calm - N/A   Clear
4:55 AM 29.3 °F - 16.5 °F 59% 30.45 in 10.0 mi Calm Calm - N/A   Clear
5:15 AM 28.9 °F - 16.7 °F 60% 30.45 in 10.0 mi Calm Calm - N/A   Clear
5:35 AM 28.2 °F 24.4 °F 17.4 °F 64% 30.45 in 10.0 mi NNE 3.5 mph - N/A   Clear
5:55 AM 27.7 °F 23.8 °F 17.2 °F 65% 30.45 in 10.0 mi NNE 3.5 mph - N/A   Clear
6:15 AM 28.0 °F - 17.4 °F 64% 30.46 in 10.0 mi Calm Calm - N/A   Clear
6:35 AM 25.7 °F - 17.2 °F 70% 30.47 in 10.0 mi Calm Calm - N/A   Clear
6:55 AM 27.1 °F - 17.8 °F 68% 30.48 in 10.0 mi Calm Calm - N/A   Clear
7:15 AM 27.5 °F - 18.5 °F 69% 30.48 in 10.0 mi Calm Calm - N/A   Clear
7:35 AM 28.8 °F 22.6 °F 18.9 °F 67% 30.49 in 10.0 mi North 5.8 mph - N/A   Clear
7:55 AM 29.3 °F 24.3 °F 19.6 °F 67% 30.49 in 10.0 mi North 4.6 mph - N/A   Clear
8:15 AM 30.6 °F 25.8 °F 20.8 °F 67% 30.50 in 10.0 mi North 4.6 mph - N/A   Clear
8:35 AM 32.0 °F 26.4 °F 20.8 °F 63% 30.50 in 10.0 mi North 5.8 mph - N/A   Clear
8:55 AM 34.7 °F - 19.0 °F 53% 30.50 in 10.0 mi Calm Calm - N/A   Clear
9:15 AM 37.0 °F 32.4 °F 15.8 °F 42% 30.51 in 10.0 mi East 5.8 mph - N/A   Clear
9:35 AM 38.1 °F 32.9 °F 16.2 °F 41% 30.50 in 10.0 mi ESE 6.9 mph - N/A   Clear
9:55 AM 39.2 °F 35.9 °F 16.5 °F 40% 30.51 in 10.0 mi East 4.6 mph - N/A   Clear
10:15 AM 40.8 °F 38.8 °F 17.2 °F 39% 30.51 in 10.0 mi East 3.5 mph - N/A   Clear
10:35 AM 42.1 °F 39.2 °F 17.4 °F 37% 30.51 in 10.0 mi ENE 4.6 mph - N/A   Clear
10:55 AM 42.8 °F 39.3 °F 16.5 °F 35% 30.51 in 10.0 mi SSE 5.8 mph - N/A   Clear
11:15 AM 43.3 °F 40.7 °F 16.9 °F 35% 30.50 in 10.0 mi SE 4.6 mph - N/A   Clear
11:35 AM 45.5 °F - 19.6 °F 36% 30.50 in 10.0 mi Calm Calm - N/A   Clear
11:55 AM 45.1 °F 42.8 °F 17.6 °F 33% 30.50 in 10.0 mi SSE 4.6 mph - N/A   Clear
12:15 PM 46.8 °F - 18.3 °F 32% 30.49 in 10.0 mi Calm Calm - N/A   Clear
12:35 PM 48.4 °F - 20.5 °F 33% 30.49 in 10.0 mi East 9.2 mph - N/A   Clear
1:15 PM 49.8 °F - 19.8 °F 31% 30.47 in 10.0 mi East 6.9 mph - N/A   Clear
1:35 PM 51.1 °F - 20.5 °F 30% 30.46 in 10.0 mi ENE 6.9 mph - N/A   Clear
1:55 PM 52.3 °F - 21.7 °F 30% 30.46 in 10.0 mi East 3.5 mph - N/A   Clear
2:15 PM 52.5 °F - 21.2 °F 29% 30.45 in 10.0 mi SE 6.9 mph - N/A   Clear
2:35 PM 53.4 °F - 20.7 °F 28% 30.45 in 10.0 mi ESE 6.9 mph - N/A   Clear
2:55 PM 54.5 °F - 20.7 °F 27% 30.44 in 10.0 mi East 3.5 mph - N/A   Clear
3:15 PM 54.3 °F - 19.9 °F 26% 30.43 in 10.0 mi SSE 8.1 mph - N/A   Clear
3:35 PM 54.9 °F - 20.1 °F 26% 30.43 in 10.0 mi ESE 6.9 mph - N/A   Clear
3:55 PM 55.6 °F - 21.0 °F 26% 30.42 in 10.0 mi SE 5.8 mph - N/A   Clear
4:15 PM 55.9 °F - 20.3 °F 25% 30.42 in 10.0 mi SE 9.2 mph - N/A   Clear
4:35 PM 55.9 °F - 21.9 °F 27% 30.41 in 10.0 mi East 9.2 mph - N/A   Clear
4:55 PM 55.9 °F - 20.3 °F 25% 30.41 in 10.0 mi ESE 6.9 mph - N/A   Clear
5:15 PM 56.5 °F - 21.6 °F 26% 30.41 in 10.0 mi ESE 8.1 mph - N/A   Clear
5:35 PM 56.5 °F - 21.7 °F 26% 30.41 in 10.0 mi SSE 6.9 mph - N/A   Clear
5:55 PM 55.4 °F - 20.5 °F 26% 30.40 in 10.0 mi SE 9.2 mph - N/A   Clear
6:15 PM 54.5 °F - 19.9 °F 26% 30.40 in 10.0 mi ESE 9.2 mph - N/A   Clear
6:35 PM 53.8 °F - 19.2 °F 26% 30.39 in 10.0 mi ESE 9.2 mph - N/A   Clear
6:55 PM 53.2 °F - 19.8 °F 27% 30.39 in 10.0 mi East 6.9 mph - N/A   Clear
7:15 PM 52.2 °F - 18.1 °F 26% 30.40 in 10.0 mi East 4.6 mph - N/A   Clear
7:35 PM 51.1 °F - 17.6 °F 27% 30.40 in 10.0 mi SE 4.6 mph - N/A   Clear
7:55 PM 49.5 °F - 16.3 °F 27% 30.41 in 10.0 mi East 5.8 mph - N/A   Clear
8:15 PM 48.4 °F - 17.1 °F 29% 30.41 in 10.0 mi SE 3.5 mph - N/A   Clear
8:35 PM 48.2 °F - 16.5 °F 28% 30.42 in 10.0 mi ESE 3.5 mph - N/A   Clear
8:55 PM 47.1 °F - 16.7 °F 30% 30.43 in 10.0 mi Calm Calm - N/A   Clear
9:15 PM 46.8 °F - 17.1 °F 31% 30.46 in 10.0 mi South 5.8 mph - N/A   Clear
9:35 PM 46.0 °F - 17.4 °F 32% 30.46 in 10.0 mi Calm Calm - N/A   Clear
9:55 PM 46.0 °F - 17.2 °F 32% 30.45 in 10.0 mi Calm Calm - N/A   Clear
10:15 PM 45.3 °F - 17.6 °F 33% 30.44 in 10.0 mi Calm Calm - N/A   Clear
10:35 PM 45.5 °F 44.2 °F 17.6 °F 33% 30.45 in 10.0 mi SE 3.5 mph - N/A   Clear
10:55 PM 45.3 °F 44.0 °F 18.1 °F 34% 30.45 in 10.0 mi South 3.5 mph - N/A   Clear
11:15 PM 44.1 °F - 18.5 °F 36% 30.45 in 10.0 mi Calm Calm - N/A   Clear
11:35 PM 41.2 °F - 20.3 °F 43% 30.44 in 10.0 mi Calm Calm - N/A   Clear
11:55 PM 40.6 °F - 21.2 °F 46% 30.44 in 10.0 mi Calm Calm - N/A   Clear